This demonstration page uses our WeatherBlox Daily Observations layout. Learn more.

Left ArrowRight Arrow

Hourly Observations for December 26, 2015

Temp ( °F °C ) Dew Point ( °F °C ) Humidity (%) Winds ( mph kmh ) Pressure ( in mb ) Visibility ( mi km ) Precip ( " mm )
12:53 am 00:53 Clear 40 4.4 27 -2.8 60 60 N 6 9 30.45 1031 10 16 0.00 0.00
1:53 am 01:53 Clear 37 2.8 27 -2.8 67 67 NNW 6 9 30.46 1032 10 16 0.00 0.00
2:53 am 02:53 Clear 37 2.8 27 -2.8 67 67 NNW 5 7 30.48 1032 10 16 0.00 0.00
3:53 am 03:53 Clear 35 1.7 26 -3.3 70 70 Calm 30.48 1032 10 16 0.00 0.00
4:53 am 04:53 Clear 39 3.9 26 -3.3 60 60 N 8 13 30.48 1032 10 16 0.00 0.00
5:53 am 05:53 Clear 40 4.4 23 -5 51 51 N 9 15 30.49 1033 10 16 0.00 0.00
6:53 am 06:53 Clear 39 3.9 22 -5.6 50 50 N 5 7 30.50 1033 10 16 0.00 0.00
7:53 am 07:53 Sunny 36 2.2 23 -5 59 59 Calm 30.51 1033 10 16 0.00 0.00
8:53 am 08:53 Sunny 42 5.6 21 -6.1 43 43 N 7 11 30.53 1034 10 16 0.00 0.00
9:53 am 09:53 Sunny 45 7.2 20 -6.7 37 37 N 10 17 30.53 1034 10 16 0.00 0.00
10:53 am 10:53 Sunny 47 8.3 20 -6.7 34 34 N 17 28 30.51 1033 10 16 0.00 0.00
11:53 am 11:53 Sunny 49 9.4 18 -7.8 29 29 NNE 13 20 30.48 1032 10 16 0.00 0.00
12:53 pm 12:53 Sunny 50 10 18 -7.8 28 28 N 12 19 30.45 1031 10 16 0.00 0.00
1:53 pm 13:53 Sunny 52 11.1 19 -7.2 27 27 N 14 22 30.42 1030 10 16 0.00 0.00
2:53 pm 14:53 Sunny 53 11.7 21 -6.1 28 28 NNE 16 26 30.40 1030 10 16 0.00 0.00
3:53 pm 15:53 Sunny 52 11.1 20 -6.7 28 28 N 12 19 30.39 1029 10 16 0.00 0.00
4:53 pm 16:53 Clear 50 10 20 -6.7 30 30 N 5 7 30.39 1029 10 16 0.00 0.00
5:53 pm 17:53 Clear 44 6.7 24 -4.4 45 45 N 5 7 30.38 1029 10 16 0.00 0.00
6:53 pm 18:53 Clear 42 5.6 23 -5 47 47 NW 6 9 30.37 1028 10 16 0.00 0.00
7:53 pm 19:53 Clear 43 6.1 25 -3.9 49 49 N 3 6 30.36 1028 10 16 0.00 0.00
8:53 pm 20:53 Clear 37 2.8 25 -3.9 62 62 WNW 3 6 30.35 1028 10 16 0.00 0.00
9:53 pm 21:53 Clear 38 3.3 28 -2.2 68 68 Calm 30.33 1027 10 16 0.00 0.00
10:53 pm 22:53 Clear 36 2.2 28 -2.2 73 73 Calm 30.33 1027 10 16 0.00 0.00
11:53 pm 23:53 Clear 34 1.1 26 -3.3 73 73 Calm 30.31 1027 10 16 0.00 0.00

Powered by AerisWeather